Kalmar, Sweden

9:44 PM CEST on October 17, 2017 (GMT +0200)
Kalmar

Weather History for ESMQ - August, 2013

Change the Weather History Date:

Thursday, August 29, 2013

  Actual Average Record
Temperature  
Mean Temperature 58 °F -  
Max Temperature 69 °F - - ()
Min Temperature 48 °F - - ()
Degree Days  
Heating Degree Days 6    
Growing Degree Days 8 (Base 50)    
Moisture  
Dew Point 50 °F    
Average Humidity 73    
Maximum Humidity 100    
Minimum Humidity 46    
Precipitation  
Precipitation 0.00 in - - ()
Sea Level Pressure  
Sea Level Pressure 30.05 in    
Wind  
Wind Speed 4 mph ()    
Max Wind Speed 14 mph    
Max Gust Speed -    
Visibility 6.2 miles    
Events Fog    
T = Trace of Precipitation, MM = Missing Value Source: Averaged Metar Reports

Daily Weather History Graph

Daily Weather History Graph

Search for Another Location

Airport or City:

Trip Planner

Search our weather history database for the weather conditions in past years. The results will help you decide how hot, cold, wet, or windy it might be!

Date:

Astronomy

Aug. 29, 2013 Rise Set
Actual Time 5:51 AM CEST 7:58 PM CEST
Civil Twilight 5:10 AM CEST 8:39 PM CEST
Nautical Twilight 4:18 AM CEST 9:31 PM CEST
Astronomical Twilight 3:14 AM CEST 10:33 PM CEST
Moon 11:40 PM CEST (8/29) 3:49 PM CEST (8/29)
Length of Visible Light 15h 28m
Length of Day
14h 07m
Last Quarter, 40% of the Moon is Illuminated
Aug 29
Last Quarter
Sep 5
New
Sep 12
First Quarter
Sep 19
Full
Sep 27
Last Quarter

Hourly Weather History & Observations

Time (CEST) Temp. Dew Point Humidity Pressure Visibility Wind Dir Wind Speed Gust Speed Precip Events Conditions
12:20 AM 57.2 °F 51.8 °F 82% 30.04 in 6.2 mi West 3.5 mph - N/A   Unknown
12:50 AM 55.4 °F 51.8 °F 88% 30.04 in 6.2 mi NW 3.5 mph - N/A   Unknown
1:20 AM 53.6 °F 50.0 °F 88% 30.04 in 6.2 mi WNW 3.5 mph - N/A   Unknown
1:50 AM 51.8 °F 50.0 °F 94% 30.04 in 6.2 mi Calm Calm - N/A   Unknown
2:20 AM 55.4 °F 51.8 °F 88% 30.04 in 6.2 mi Variable 2.3 mph - N/A   Unknown
2:50 AM 53.6 °F 50.0 °F 88% 30.04 in 6.2 mi Variable 1.2 mph - N/A   Unknown
3:20 AM 51.8 °F 50.0 °F 94% 30.04 in 6.2 mi West 3.5 mph - N/A   Unknown
3:50 AM 51.8 °F 50.0 °F 94% 30.04 in 6.2 mi WNW 2.3 mph - N/A   Unknown
4:20 AM 51.8 °F 50.0 °F 94% 30.06 in 6.2 mi Variable 2.3 mph - N/A   Unknown
4:50 AM 50.0 °F 48.2 °F 94% 30.06 in 6.2 mi West 2.3 mph - N/A   Unknown
5:20 AM 48.2 °F 48.2 °F 100% 30.06 in 6.2 mi Calm Calm - N/A   Unknown
5:50 AM 48.2 °F 46.4 °F 93% 30.06 in 6.2 mi Calm Calm - N/A Fog Shallow Fog
6:20 AM 48.2 °F 48.2 °F 100% 30.06 in 6.2 mi Calm Calm - N/A Fog Shallow Fog
6:50 AM 51.8 °F 51.8 °F 100% 30.06 in - Variable 1.2 mph - N/A   Clear
7:20 AM 53.6 °F 53.6 °F 100% 30.06 in - Calm Calm - N/A   Clear
7:50 AM 57.2 °F 53.6 °F 88% 30.06 in - Calm Calm - N/A   Clear
8:20 AM 60.8 °F 55.4 °F 82% 30.06 in - West 3.5 mph - N/A   Clear
8:50 AM 62.6 °F 55.4 °F 77% 30.06 in - WSW 4.6 mph - N/A   Clear
9:20 AM 64.4 °F 57.2 °F 77% 30.06 in - WSW 4.6 mph - N/A   Clear
9:50 AM 66.2 °F 55.4 °F 68% 30.06 in - WSW 6.9 mph - N/A   Clear
10:20 AM 66.2 °F 55.4 °F 68% 30.06 in 6.2 mi SW 8.1 mph - N/A   Scattered Clouds
10:50 AM 68.0 °F 57.2 °F 68% 30.06 in 6.2 mi West 9.2 mph - N/A   Partly Cloudy
11:20 AM 68.0 °F 55.4 °F 64% 30.04 in 6.2 mi WSW 10.4 mph - N/A   Scattered Clouds
11:50 AM 66.2 °F 55.4 °F 68% 30.04 in 6.2 mi WSW 10.4 mph - N/A   Partly Cloudy
12:20 PM 69.8 °F 53.6 °F 56% 30.04 in 6.2 mi WSW 9.2 mph - N/A   Partly Cloudy
12:50 PM 69.8 °F 51.8 °F 53% 30.04 in 6.2 mi West 10.4 mph - N/A   Partly Cloudy
1:20 PM 68.0 °F 50.0 °F 52% 30.04 in 6.2 mi WSW 10.4 mph - N/A   Mostly Cloudy
1:50 PM 68.0 °F 50.0 °F 52% 30.04 in 6.2 mi West 11.5 mph - N/A   Mostly Cloudy
2:20 PM 68.0 °F 50.0 °F 52% 30.04 in 6.2 mi WNW 11.5 mph - N/A   Mostly Cloudy
2:50 PM 68.0 °F 50.0 °F 52% 30.04 in - West 11.5 mph - N/A   Clear
3:20 PM 68.0 °F 50.0 °F 52% 30.04 in - WNW 12.7 mph - N/A   Clear
3:50 PM 68.0 °F 50.0 °F 52% 30.04 in - West 9.2 mph - N/A   Clear
4:20 PM 68.0 °F 48.2 °F 49% 30.04 in - West 9.2 mph - N/A   Clear
4:50 PM 68.0 °F 48.2 °F 49% 30.04 in - West 12.7 mph - N/A   Clear
5:20 PM 68.0 °F 48.2 °F 49% 30.04 in - West 12.7 mph - N/A   Clear
5:50 PM 68.0 °F 46.4 °F 46% 30.04 in - West 13.8 mph - N/A   Clear
6:20 PM 68.0 °F 48.2 °F 49% 30.04 in - West 12.7 mph - N/A   Clear
6:50 PM 66.2 °F 48.2 °F 52% 30.04 in - West 9.2 mph - N/A   Clear
7:20 PM 64.4 °F 48.2 °F 56% 30.04 in 6.2 mi West 6.9 mph - N/A   Unknown
7:50 PM 62.6 °F 48.2 °F 59% 30.04 in - WNW 8.1 mph - N/A   Clear
8:20 PM 60.8 °F 48.2 °F 63% 30.04 in - West 3.5 mph - N/A   Clear
8:50 PM 55.4 °F 48.2 °F 77% 30.04 in - WSW 3.5 mph - N/A   Clear
9:20 PM 51.8 °F 46.4 °F 82% 30.04 in - WSW 2.3 mph - N/A   Clear
9:50 PM 50.0 °F 46.4 °F 87% 30.04 in - WSW 2.3 mph - N/A   Clear
10:20 PM 55.4 °F 48.2 °F 77% 30.06 in 6.2 mi WSW 3.5 mph - N/A   Unknown
10:50 PM 53.6 °F 48.2 °F 82% 30.06 in 6.2 mi WSW 3.5 mph - N/A   Unknown
11:20 PM 55.4 °F 48.2 °F 77% 30.06 in 6.2 mi WSW 3.5 mph - N/A   Unknown
11:50 PM 55.4 °F 48.2 °F 77% 30.06 in 6.2 mi SSW 2.3 mph - N/A   Unknown